Location: Belfast
(54.5830°N, 5.9330°W)
Time: 12:37:08
(UTC+01:00)

ISS - Pass Details

Date: 23 May 2018
Orbit: 402 x 407 km, 51.6° (Epoch: 20 May)

Event Time Altitude Azimuth Distance (km) Brightness Sun altitude
Rises 01:09:12 0° 264° (W) 2,320 0.0 -14.8°
Reaches altitude 10° 01:11:18 10° 259° (W) 1,459 -1.1 -14.9°
Maximum altitude 01:14:29 50° 184° (S) 523 -3.7 -14.9°
Drops below altitude 10° 01:17:40 10° 107° (ESE) 1,458 -1.2 -14.9°
Sets 01:19:46 0° 102° (ESE) 2,316 -0.1 -14.9°
